This is the latest recevied weather packets stored in our database for station/object K6TTR. If no packets are shown the sender has not sent any weather packets the latest 10 day(s).
| Time | Temp. | Humidity | Pressure | Rain* | Wind** | Luminosity | Snow |
|---|---|---|---|---|---|---|---|
| 1777575221 | 17.78° C | 30% | 1019 hPa | 0 mm | - | 838 W/m² | - |
| 1777574927 | 17.78° C | 33% | 1019 hPa | 0 mm | - | 817 W/m² | - |
| 1777574612 | 17.78° C | 31% | 1019 hPa | 0 mm | - | 921 W/m² | - |
| 1777574316 | 17.22° C | 33% | 1019.2 hPa | 0 mm | - | 861 W/m² | - |
| 1777574022 | 17.22° C | 32% | 1019.2 hPa | 0 mm | - | 958 W/m² | - |
| 1777573728 | 17.22° C | 34% | 1019.2 hPa | 0 mm | - | 916 W/m² | - |
| 1777573412 | 17.22° C | 33% | 1019.2 hPa | 0 mm | - | 926 W/m² | - |
| 1777573117 | 16.67° C | 35% | 1019.1 hPa | 0 mm | - | 777 W/m² | - |
| 1777572822 | 16.67° C | 34% | 1019.1 hPa | 0 mm | - | 919 W/m² | - |
| 1777572528 | 16.67° C | 35% | 1019.3 hPa | 0 mm | - | 853 W/m² | - |
| 1777572214 | 16.67° C | 34% | 1019.3 hPa | 0 mm | - | 661 W/m² | - |
| 1777571920 | 16.67° C | 35% | 1019.3 hPa | 0 mm | - | 696 W/m² | - |
| 1777571623 | 16.67° C | 37% | 1019.3 hPa | 0 mm | - | 290 W/m² | - |
| 1777571312 | 16.11° C | 37% | 1019.3 hPa | 0 mm | - | 441 W/m² | - |
| 1777571017 | 16.11° C | 38% | 1019.3 hPa | 0 mm | - | 434 W/m² | - |
| 1777570724 | 16.11° C | 38% | 1019.3 hPa | 0 mm | - | 91 W/m² | - |
| 1777570427 | 15.56° C | 40% | 1019.3 hPa | 0 mm | - | 63 W/m² | - |
| 1777570112 | 15.56° C | 42% | 1019.4 hPa | 0 mm | - | 67 W/m² | - |
| 1777569814 | 15.56° C | 40% | 1019.3 hPa | 0 mm | - | 86 W/m² | - |
| 1777569520 | 15° C | 42% | 1019.3 hPa | 0 mm | - | 69 W/m² | - |
| 1777569224 | 15° C | 42% | 1019.3 hPa | 0 mm | - | 123 W/m² | - |
| 1777568928 | 15° C | 43% | 1019.5 hPa | 0 mm | - | 60 W/m² | - |
| 1777568614 | 14.44° C | 43% | 1019.5 hPa | 0 mm | - | 176 W/m² | - |
| 1777568319 | 14.44° C | 45% | 1019.6 hPa | 0 mm | - | 54 W/m² | - |
| 1777568022 | 14.44° C | 43% | 1019.6 hPa | 0 mm | - | 58 W/m² | - |
* Rain latest hour (hover to see other rain measurements)
** Current wind speed in m/s (hover to see current wind gust speed)